カタログに戻る

SCOUT G-1 DEB

運用中PO
NORAD 43330·DEBRIS·🇺🇸 United States

打ち上げ Apr 26, 1988 から Vandenberg Space Force Base

Loading…

次のパス (今後24時間)

TLE

経年Source: Space-Track

元期: Sep 8, 2026, 01:44 UTC

1 43330U 88033L   26251.07261218  .00000232  00000-0  41161-3 0  9991
2 43330  90.3247  21.0479 0190638  98.8551 263.4227 13.32908608670634

AllMySatでSCOUT G-1 DEBをリアルタイム追跡

Download on the App Store